Starlink 5169

operational
NORAD ID: 54060 Int'l Des: 2022-136 Owner: SPXS Country: US Constellation: starlink
LEOCIRCULAR

About Starlink 5169

Description loading...

Live Position

Loading 3D Globe...

Upcoming Passes

Altitude History

Altitude vs Time

uPlot chart will show altitude changes over time

Two-Line Element Set

1 54060U 22136K 25348.66470268 -.00001981 00000-0 -10643-3 0 9998
2 54060 53.2185 335.4681 0001316 93.3087 266.8056 15.08831389174430
Epoch: Dec 14, 2025 • Age: 25 hours

Current Status

Altitude 559.0 km
Velocity 7.58 km/s
Sub-Earth Point -52.71°S, 110.65°W
Launch Date Oct 20, 2022
Age 3.1 years
Type internet

Technical Details

Classification Payload
Mass 305.00 kg
Dry Mass 290.00 kg
Total Mass 305.00 kg
Length 0.20 m
Diameter 2.80 m
Span 9.00 m
Shape Box + pan
Manufacturer SPXS
Bus Type Starlink
Phase Status In Orbit
Owner/State SPXS/US

Large Constellations

Loading constellations...